Simultaneous Nadir Overpasses (SNOs) Predictions

Prediction of SNOs between GOES-17 and NOAA-19 Satellite Orbit:

Table of predicted SNOs for the next 14.0 days since TLE Epoch: 6/16/2022
Index Date Time (GOES-17) GOES-17 Lat,Lon NOAA-19 Lat,Lon Distance(km) Time Diff (sec)
1 06/16/2022 05:09:10 -0.06,-137.19 -0.86,-140.62 392.34 80
2 06/17/2022 04:57:20 -0.06,-137.18 -0.20,-137.73 63.16 80
3 06/18/2022 04:48:09 -0.05,-137.18 0.46,-134.85 266.06 80
4 06/20/2022 17:06:01 0.05,-137.18 0.64,-139.71 289.23 80
5 06/21/2022 16:56:51 0.05,-137.18 -0.05,-136.83 40.19 80
6 06/22/2022 16:44:59 0.05,-137.17 -0.68,-133.93 369.44 80
7 06/25/2022 05:03:00 -0.04,-137.14 -0.42,-138.84 193.18 80
8 06/26/2022 04:53:49 -0.04,-137.13 0.25,-135.95 135.38 80
9 06/27/2022 04:39:19 -0.03,-137.12 0.93,-133.06 463.69 80
10 06/28/2022 17:11:38 0.03,-137.11 0.87,-140.80 421.65 80
11 06/29/2022 16:59:47 0.02,-137.09 0.23,-137.90 93.62 80
